Regional Weather Roundup
Issued by NWS

Home | Current Version | Previous Version | Graphics & Text | Print | Product List | Glossary On
Versions: 1 2 3 4 5 6 7 8 9 10 11 12 13 14 15 16 17 18 19 20 21 22 23 24 25 26 27 28 29 30 31 32 33 34 35 36 37 38 39 40 41 42 43 44 45 46 47 48 49 50
000
ASUS43 KLOT 011621
RWRIL

ILLINOIS REGIONAL WEATHER ROUNDUP
NATIONAL WEATHER SERVICE CHICAGO/ROMEOVILLE IL
1100 AM CDT TUE SEP 01 2015

NOTE: "FAIR" INDICATES FEW OR NO CLOUDS BELOW 12,000 FEET WITH NO
SIGNIFICANT WEATHER AND/OR OBSTRUCTIONS TO VISIBILITY.

* THESE STATIONS ARE NOT UNDER NWS QUALITY CONTROL. THEY ALSO MAY NOT
  REPORT WEATHER SUCH AS PRECIPITATION OR FOG.

ILZ001-002-007-009-015-016-024-011700-
NORTHWEST ILLINOIS

CITY           SKY/WX    TMP DP  RH WIND       PRES   REMARKS
MOLINE         SUNNY     85  71  63 W9        30.02S HX  90
STERLING*      SUNNY     88  73  62 SW6       30.01S HX  96
SAVANNA*       SUNNY     83  71  65 SW5       30.02S HX  88
$$

ILZ003-004-008-010-011-017-018-011700-
NORTH CENTRAL ILLINOIS

CITY           SKY/WX    TMP DP  RH WIND       PRES   REMARKS
ROCKFORD       SUNNY     82  73  74 SW5       30.04F HX  87
FREEPORT*      SUNNY     82  73  74 SW7       30.04S HX  86
ROCHELLE*      SUNNY     82  74  77 SW6       30.05S HX  87
DE KALB*       SUNNY     82  74  77 S6        30.06F HX  88
PERU*          SUNNY     84  71  63 W7        30.06S HX  88
$$

ILZ005-006-012>014-019>023-011700-
NORTHEAST ILLINOIS

CITY           SKY/WX    TMP DP  RH WIND       PRES   REMARKS
CHICAGO-OHARE  MOSUNNY   82  73  74 SW7       30.05S HX  87
CHICAGO-MIDWAY MOSUNNY   84  72  67 S7        30.06R HX  89
AURORA         SUNNY     83  74  74 VRB3      30.06F HX  89
LANSING*       PTSUNNY   82  73  73 S12       30.08S HX  87
JOLIET*        SUNNY     83  74  73 SW3       30.07S HX  90
WAUKEGAN       SUNNY     83  73  72 SW6       30.03F HX  89
DUPAGE AIRPORT SUNNY     81  72  74 S6        30.05F HX  85
KANKAKEE*      CLOUDY    78  70  74 S16G24    30.12R HX  81
WHEELING       SUNNY     83  71  67 W6        30.05F HX  87
MORRIS*        MOSUNNY   83  74  74 S5        30.06R HX  89
ROMEOVILLE*    MOSUNNY   82  71  71 SW6       30.07S HX  86
NORTHERLY ISL    N/A     83  70  64 S5          N/A  HX  87
$$

LMZ740>746-011700-
SOUTHERN LAKE MICHIGAN

STATION/POSITION SKY/WX   TEMP    WIND        PRES    VSBY  WAVE
                          AIR SEA DIR/SP/G                  HT/PER
                          (F)     (DEG/KT/KT) (MB)    (MI)  (FT/S)
SOUTHERN BUOY              71 70  180/ 12/ 14 1017.1F         1
WILMETTE HARBOR            69 62  320/  6/  8   N/A           1
HARRISON CRIB              77     170/ 12/ 13   N/A
BURNHAM HARBOR             83     170/  4/  7   N/A
CALUMET HARBOR             79     190/  6/  8   N/A
BURNS HARBOR               79     180/  5/  8 1018.6S
MICHIGAN CITY              80     150/ 10/ 11   N/A
MICHIGAN CITY 6N           76 73  200/  6/  6   N/A           0
ST. JOSEPH                 74 72  250/  4/  4   N/A           1
$$

ILZ025>027-034>036-040-047-049-050-058-095>099-011700-
WEST-CENTRAL ILLINOIS

CITY           SKY/WX    TMP DP  RH WIND       PRES   REMARKS
QUINCY         SUNNY     84  69  60 W8        30.07R HX  88
GALESBURG*     SUNNY     84  73  69 S9        30.06R HX  89
MACOMB*        SUNNY     85  71  62 SW8       30.08S HX  90
JACKSONVILLE*  SUNNY     86  72  62 W6        30.08S HX  92
PITTSFIELD*    SUNNY     86  70  58 SW5       30.09S HX  90
$$

ILZ028>032-037-038-041>044-048-051>054-059>061-011700-
CENTRAL ILLINOIS

CITY           SKY/WX    TMP DP  RH WIND       PRES   REMARKS
PONTIAC        SUNNY     83  76  77 S5        30.10R HX  91
BLOOMINGTON    SUNNY     85  74  69 S8        30.11S HX  92
DECATUR        MOSUNNY   81  70  69 SE10      30.12R HX  84
PEORIA         SUNNY     87  72  60 SW5       30.07S HX  93
LACON*         SUNNY     83  73  70 S6        30.05S HX  89
LINCOLN*       MOSUNNY   87  70  57 SW3       30.08S HX  92
SPRINGFIELD    SUNNY     86  72  62 W6        30.09S HX  92
TAYLORVILLE    SUNNY     82  72  69 SW7       30.10F HX  87
$$

ILZ033-039-045-046-055>057-062-063-011700-
EAST-CENTRAL ILLINOIS

CITY           SKY/WX    TMP DP  RH WIND       PRES   REMARKS
CHAMPAIGN      LGT RAIN  70  67  90 SE7       30.14S
RANTOUL*       CLOUDY    73  69  87 S5        30.16R
MATTOON        CLOUDY    73  65  75 S5        30.13F
PARIS*         TSTM      69  68  96 CALM      30.16R
$$

ILZ079-100>102-011700-
SOUTHWEST ILLINOIS

CITY           SKY/WX    TMP DP  RH WIND       PRES   REMARKS
ALTON          SUNNY     82  72  69 S7        30.10F HX  87
BELLEVILLE     SUNNY     85  74  69 VRB3      30.10S HX  91
CAHOKIA*       SUNNY     85  70  60 VRB5      30.10S HX  89
SPARTA*        SUNNY     83  71  66 SW5       30.13S HX  88
$$

ILZ064>066-069>071-074>076-080>082-084>086-088>090-092>094-011700-
SOUTH-CENTRAL ILLINOIS

CITY           SKY/WX    TMP DP  RH WIND       PRES   REMARKS
CARBONDALE     SUNNY     83  70  64 S7        30.13S HX  87
CAIRO*         SUNNY     82  74  77 SW3       30.14R HX  87
EFFINGHAM*     PTSUNNY   80  66  62 SE9       30.16S HX  82
MARION         SUNNY     84  72  65 SW9       30.15S HX  89
MT. VERNON     PTSUNNY   84  70  61 S8        30.14F HX  88
CENTRALIA*     MOSUNNY   85  72  65 SW6       30.12S HX  90
SALEM*         MOSUNNY   85  70  60 CALM      30.13F HX  89
METROPOLIS*    SUNNY     84  71  66 CALM      30.15R HX  89
$$

ILZ067-068-072-073-078-083-087-091-011700-
SOUTHEAST ILLINOIS

CITY           SKY/WX    TMP DP  RH WIND       PRES   REMARKS
LAWRENCEVILLE  PTSUNNY   74  71  91 SE5       30.15F
FLORA*         PTSUNNY   83  70  64 SE6       30.13F HX  86
FAIRFIELD*     PTSUNNY   81  70  69 E3        30.13F HX  85
HARRISBURG*    SUNNY     84  69  60 S7        30.14S HX  88
ROBINSON*      LGT RAIN  72  70  91 N5        30.14F
CARMI*         MOSUNNY   83  71  67 W5        30.13F HX  88
$$

ABBREVIATIONS USED IN REMARKS
   TC - TEMPERATURE IN CELSIUS
  WCI - WIND CHILL INDEX
   HX - HEAT INDEX
  VSB - VISIBILITY
$$




USA.gov is the U.S. government's official web portal to all federal, state and local government web resources and services.